Flag for U.S.A. Weather past 2 weeks in Des Moines, Iowa, U.S.A.

Now
22 °F

Light snow. Overcast.


Feels Like: 14 °F
Forecast: 11 / 32 °F
Wind: 6 mph from Southwest

Location: Des Moines International Airport

Current Time: Mar 1, 2015 at 7:28:35 AM

Latest Report: Mar 1, 2015 at 6:54 AM


Visibility: 9 mi

Pressure: 30.39 "Hg

Humidity: 75%

Dew point: 15 °F

Location of Des MoinesLocation

Historic Weather in Des Moines — Graph

°F

Des Moines temperature yesterday

Maximum temperature yesterday: 23 °F (at 1:54 PM)
Minimum temperature yesterday: 2 °F (at 5:54 AM)
Average temperature yesterday: 14 °F

Past Weeks' High & Low Weather Summary

 TemperatureHumidityPressure
High39 °F (Feb 20, 3:54 PM)85% (Feb 28, 7:54 PM)30.87 "Hg (Feb 28, 7:54 PM)
Low-7 °F (Feb 27, 6:54 AM)35% (Feb 23, 1:54 PM)29.81 "Hg (Feb 25, 12:54 PM)
Average15 °F58%30.32 "Hg
* Reported Feb 14 5:54 AM — Mar 1 5:54 AM, Des Moines, Weather by CustomWeather, © 2015

Note: Actual official high and low records may vary slightly from our data, if they occured in-between our weather recording intervals... More about our weather records

Advertising

Des Moines weather history for previous 24 hours

 ConditionsComfort  
Time TempWeatherWind HumidityBarometerVisibility
5:54 AM
Sun, Mar 1
22 °FOvercast.5 mph78%30.39 "Hg9 mi
4:54 AM21 °FLight snow. Overcast.3 mph81%30.37 "Hg8 mi
3:54 AM21 °FLight snow. Ice fog.3 mph85%30.37 "Hg6 mi
2:54 AM21 °FLight snow. Overcast.5 mph81%30.39 "Hg7 mi
1:54 AM20 °FLight snow. Ice fog.7 mph85%30.41 "Hg6 mi
12:54 AM20 °FLight snow. Ice fog.7 mph85%30.41 "Hg6 mi
11:54 PM
Sat, Feb 28
21 °FLight snow. Overcast.7 mph81%30.42 "Hg6 mi
10:54 PM21 °FLight snow. Ice fog.7 mph85%30.43 "Hg6 mi
9:54 PM21 °FLight snow. Ice fog.6 mph85%30.45 "Hg6 mi
8:54 PM22 °FLight snow. Mostly cloudy.7 mph82%30.44 "Hg6 mi
7:54 PM22 °FLight snow. Mostly cloudy.6 mph85%30.45 "Hg7 mi
6:54 PM21 °FLight snow. Passing clouds.6 mph81%30.45 "Hg9 mi
5:54 PM22 °FLight snow. Low clouds.6 mph82%30.45 "Hg4 mi
5:00 PM22 °FLight snow. Mostly cloudy.6 mph82%30.40 "Hg1 mi
3:54 PM22 °FLight snow. Mostly cloudy.9 mph78%30.48 "Hg1 mi
2:54 PM23 °FLight snow. Mostly cloudy.10 mph63%30.48 "Hg4 mi
1:54 PM23 °FMore clouds than sun.8 mph55%30.49 "Hg10 mi
12:54 PM22 °FPartly sunny.13 mph55%30.55 "Hg10 mi
11:54 AM20 °FPartly sunny.8 mph57%30.57 "Hg10 mi
10:54 AM17 °FScattered clouds.8 mph56%30.60 "Hg10 mi
9:54 AM13 °FPassing clouds.8 mph59%30.61 "Hg10 mi
8:54 AM9 °FPassing clouds.6 mph61%30.62 "Hg10 mi
7:54 AM4 °FPassing clouds.8 mph69%30.63 "Hg10 mi
Weather by CustomWeather, © 2015

See weather overviewHow to use our weather pages